Карточка аэропорта UERP

Внимание!
Информация на этой странице в стадии наполнения.
Если вы не увидели какой-то информации, или заметили неточность - пожалуйста сообщите нам!
Спасибо!
Команда RU-STAFF
Название аэропортаПолярный
Название аэропорта (англ.)Poliarny
Превышение1673 ft. (509.9 m.)
Координаты66°23.85', 112°2.0999999999998'
Высота перехода700m
Эшелон переходаQFE>=714mm:FL050; QFE<714=>687:FL060; QFE<687:FL070
Коды ответчика1000
Зона ОрВДЯкутск РПИ (UEEE)
Данные METARUERP 290230Z VRB01MPS CAVOK 17/04 Q1012 R35/090060 NOSIG RMK QFE715
Проноз погоды (TAF)UERP 290200Z 2903/3003 VRB01MPS 9999 SCT023 BECMG 2904/2906 12004MPS
NOTAMshow/hide NOTAM
AWOS   TABLE

Информация о ВПП

ВПП Длина ВПП (м.) Покрытие Курс ВПП Частота ILS
173100Железобетон173 
353100Железобетон353108.1

Диспетчерские позиции

Позывной Наименование органа УВД Частота
UERP_TWRПолярный-Вышка124.200
UERP_CTRПолярный-Контроль132.1



Спутниковое изображение